Jackson, TN

9:37 PM CDT on May 27, 2017 (GMT -0500)
McKellar-Sipes Regional

Weather History for KMKL - August, 2014

Change the Weather History Date:

Sunday, August 24, 2014

  Actual Average Record
Temperature  
Mean Temperature 83 °F 78 °F  
Max Temperature 95 °F 90 °F 104 °F (1983)
Min Temperature 70 °F 66 °F 53 °F (1997)
Degree Days  
Heating Degree Days 0 0  
Month to date heating degree days 0 0  
Since 1 June heating degree days 0 2  
Since 1 July heating degree days 0 0  
Cooling Degree Days 18 13  
Month to date cooling degree days 313 331  
Year to date cooling degree days 1216 1334  
Since 1 June cooling degree days 966 1119  
Growing Degree Days 33 (Base 50)    
Moisture  
Dew Point 71 °F    
Average Humidity 71    
Maximum Humidity 93    
Minimum Humidity 49    
Precipitation  
Precipitation 0.82 in 0.09 in 1.66 in (2002)
Month to date precipitation 4.81 2.44  
Year to date precipitation 43.18 35.31  
Snow  
Snow 0.00 in 0.00 in - ()
Month to date snowfall 0.0 0.0  
Since 1 June snowfall 0.0 0.0  
Since 1 July snowfall 0.0 0.0  
Snow Depth 0.00 in    
Sea Level Pressure  
Sea Level Pressure 29.95 in    
Wind  
Wind Speed 2 mph (ESE)    
Max Wind Speed 33 mph    
Max Gust Speed 41 mph    
Visibility 9 miles    
Events Rain , Thunderstorm    
T = Trace of Precipitation, MM = Missing Value Source: NWS Daily Summary

Daily Weather History Graph

Daily Weather History Graph

Search for Another Location

Airport or City:

Trip Planner

Search our weather history database for the weather conditions in past years. The results will help you decide how hot, cold, wet, or windy it might be!

Date:

Astronomy

Aug. 24, 2014 Rise Set
Actual Time 6:21 AM CDT 7:33 PM CDT
Civil Twilight 5:55 AM CDT 8:00 PM CDT
Nautical Twilight 5:23 AM CDT 8:31 PM CDT
Astronomical Twilight 4:50 AM CDT 9:04 PM CDT
Moon 5:32 AM CDT (8/24) 6:53 PM CDT (8/24)
Length of Visible Light 14h 04m
Length of Day
13h 11m
Waning Crescent, 1% of the Moon is Illuminated
Aug 24
Waning Crescent
Aug 25
New
Sep 2
First Quarter
Sep 8
Full
Sep 15
Last Quarter

Hourly Weather History & Observations

Time (CDT) Temp. Heat Index Dew Point Humidity Pressure Visibility Wind Dir Wind Speed Gust Speed Precip Events Conditions
12:53 AM 77.0 °F - 73.9 °F 90% 29.97 in 7.0 mi East 13.8 mph 21.9 mph N/A   Clear
1:53 AM 75.9 °F - 70.0 °F 82% 29.98 in 10.0 mi East 10.4 mph 17.3 mph 0.01 in   Clear
2:53 AM 75.9 °F - 69.1 °F 79% 29.96 in 10.0 mi SSE 5.8 mph - N/A   Clear
3:53 AM 73.9 °F - 68.0 °F 82% 29.95 in 10.0 mi Calm Calm - N/A   Clear
4:53 AM 72.0 °F - 68.0 °F 87% 29.95 in 10.0 mi Calm Calm - N/A   Clear
5:53 AM 71.1 °F - 68.0 °F 90% 29.95 in 10.0 mi Calm Calm - N/A   Clear
6:53 AM 71.1 °F - 68.0 °F 90% 29.96 in 10.0 mi WSW 3.5 mph - N/A   Clear
7:53 AM 75.0 °F - 70.0 °F 84% 29.96 in 10.0 mi Calm Calm - N/A   Clear
8:53 AM 79.0 °F - 71.1 °F 77% 29.97 in 10.0 mi Calm Calm - N/A   Clear
9:53 AM 84.0 °F 90.2 °F 73.0 °F 69% 29.97 in 10.0 mi SW 4.6 mph - N/A   Scattered Clouds
10:53 AM 88.0 °F 97.5 °F 75.0 °F 65% 29.97 in 10.0 mi Calm Calm - N/A   Scattered Clouds
11:53 AM 91.9 °F 103.2 °F 75.0 °F 58% 29.97 in 10.0 mi Calm Calm - N/A   Clear
12:53 PM 93.0 °F 103.2 °F 73.9 °F 54% 29.95 in 10.0 mi Calm Calm - N/A   Clear
1:53 PM 95.0 °F 104.5 °F 73.0 °F 49% 29.94 in 10.0 mi Calm Calm - N/A   Clear
2:53 PM 91.9 °F 103.2 °F 75.0 °F 58% 29.92 in 10.0 mi Calm Calm - N/A   Mostly Cloudy
3:53 PM 93.9 °F 103.4 °F 73.0 °F 51% 29.90 in 10.0 mi Calm Calm - N/A   Clear
4:53 PM 90.0 °F 101.3 °F 75.9 °F 63% 29.90 in 10.0 mi East 4.6 mph - N/A   Mostly Cloudy
5:29 PM 91.4 °F 102.5 °F 75.2 °F 59% 29.93 in 10.0 mi NNE 5.8 mph - 0.00 in Thunderstorm Mostly Cloudy
5:41 PM 82.4 °F 88.2 °F 73.4 °F 74% 29.93 in 1.0 mi NNE 23.0 mph 29.9 mph 0.00 in Thunderstorm Unknown
5:53 PM 78.1 °F - 70.0 °F 76% 29.93 in 1.0 mi NE 15.0 mph 41.4 mph N/A Rain , Thunderstorm Heavy Thunderstorms and Rain
6:05 PM 78.8 °F - 69.8 °F 74% 29.95 in 3.0 mi ESE 15.0 mph 21.9 mph N/A Rain , Thunderstorm Light Thunderstorms and Rain
6:49 PM 73.4 °F - 68.0 °F 83% 29.93 in 10.0 mi SE 8.1 mph - N/A Rain Light Rain
6:53 PM 73.9 °F - 68.0 °F 82% 29.93 in 10.0 mi South 5.8 mph - N/A Rain Light Rain
7:53 PM 73.0 °F - 71.1 °F 93% 29.92 in 10.0 mi Calm Calm - N/A   Clear
9:53 PM 73.9 °F - 71.1 °F 91% 29.95 in 10.0 mi Calm Calm - N/A   Clear
10:53 PM 73.0 °F - 71.1 °F 93% 29.96 in 9.0 mi Calm Calm - N/A   Clear